{"data":{"norad_id":41335,"intl_designator":"2016-011A","name":"SENTINEL-3A","alt_names":[],"object_type":"PAYLOAD","status":"ACTIVE","operator":null,"country":"ESA","launch_date":"2016-02-16","launch_site_code":"PLMSC","launch_vehicle":null,"mission":null,"orbit_class":"UNKNOWN","rcs_meters":3.9811,"size_class":null,"mass_kg":null,"dimensions":null,"purposes":["earth_obs"],"wikipedia_slug":null,"has_3d_model":false,"image_url":null,"decayed_at":null,"tle_current":{"epoch":"2026-05-25T03:27:07.250688Z","epoch_age_seconds":58499,"freshness":"FRESH","line1":"1 41335U 16011A   26145.14383392  .00000077  00000+0  49654-4 0  9991","line2":"2 41335  98.6255 212.8570 0001206 108.4176 251.7135 14.26738792534773","mean_motion":14.26738792,"eccentricity":0.0001206,"inclination_deg":98.6255,"raan_deg":212.857,"arg_perigee_deg":108.4176,"mean_anomaly_deg":251.7135,"bstar":4.9654e-5,"rev_number":53477,"period_min":100.9294769354,"perigee_km":801.78648170246,"apogee_km":803.51848812622,"semimajor_km":7180.7894849143,"source":"CELESTRAK","updated_at":"2026-05-25T13:38:12.791004Z"}}}